Regional Weather Roundup
Issued by NWS

Home | Current Version | Previous Version | Graphics & Text | Print | Product List | Glossary On
Versions: 1 2 3 4 5 6 7 8 9 10 11 12 13 14 15 16 17 18 19 20 21 22 23 24 25 26 27 28 29 30 31 32 33 34 35 36 37 38 39 40 41 42 43 44 45 46 47 48 49 50
000
ASUS43 KLSX 281559
RWRMO

WEATHER SUMMARY FOR MISSOURI
NATIONAL WEATHER SERVICE SPRINGFIELD MO
1000 AM CST WED JAN 28 2015

NOTE: "FAIR" INDICATES FEW OR NO CLOUDS BELOW 12,000 FEET WITH NO
       SIGNIFICANT WEATHER AND/OR OBSTRUCTIONS TO VISIBILITY.
       CURRENT SKY AND/OR WEATHER CONDITIONS ARE NOT AVAILABLE FOR
       CHILLICOTHE AND FARMINGTON.

MOZ001>031-035>038-043-044-053-054-281700-
...NORTHERN AND WESTERN MISSOURI...

CITY           SKY/WX    TMP DP  RH WIND       PRES   REMARKS
KANSAS CTY INT PTSUNNY   52  36  54 S14       29.90F
KANSAS C DTWN  SUNNY     55  35  47 S13G20    29.92S
LEE`S SUMMIT   SUNNY     52  34  50 S17G23    29.94S
ST JOSEPH      SUNNY     48  34  58 S12       29.90F
CHILLICOTHE      N/A     40  33  76 SE8G18    29.98F
KIRKSVILLE     SUNNY     35  32  88 SE20G28   30.03F WCI  24

$$
MOZ066>068-077>081-088>096-101>105-281700-
...SOUTHWEST MISSOURI...

CITY           SKY/WX    TMP DP  RH WIND       PRES   REMARKS
SPRINGFIELD    SUNNY     46  34  62 SE23      30.07F
JOPLIN         SUNNY     63  36  36 S20       30.02F

$$
MOZ032>034-039>042-045>050-055>058-069>072-281700-
...CENTRAL MISSOURI...

CITY           SKY/WX    TMP DP  RH WIND       PRES   REMARKS
COLUMBIA       SUNNY     41  32  70 SE16      30.07F
JEFFERSON CITY SUNNY     42  31  64 SE12      30.11F
ROLLA          SUNNY     40  30  67 S22G29    30.10F WCI  30
SEDALIA        SUNNY     50  35  56 S17       30.01F
OSAGE BEACH    SUNNY     45  30  57 S17G23    30.09S

$$
MOZ051-052-059>065-281700-
...EAST CENTRAL MISSOURI...

CITY           SKY/WX    TMP DP  RH WIND       PRES   REMARKS
ST LOUIS INTL  MOSUNNY   37  27  67 SE17G25   30.22S WCI  27
SPIRIT OF STL  MOSUNNY   37  26  64 SE8       30.20F
ST CHARLES     SUNNY     36  29  75 SE15      30.22S WCI  27

$$
MOZ072>076-082>087-097>100-106>115-281700-
...SOUTH CENTRAL AND SOUTHEAST MISSOURI...

CITY           SKY/WX    TMP DP  RH WIND       PRES   REMARKS
CAPE GIRARDEAU SUNNY     36  30  79 S9        30.32R WCI  29
FARMINGTON     SUNNY     36  27  69 MISG      30.25F
POPLAR BLUFF   SUNNY     37  28  70 S12       30.30S WCI  29
WEST PLAINS    SUNNY     39  30  70 S12       30.21S

$$


USA.gov is the U.S. government's official web portal to all federal, state and local government web resources and services.